Content
SEND FEEDBACK

Daily
Averages
Monthly
Summary
Australia

MOUNT ISA MINES, QUEENSLAND


Home > Oceania > Australia > Queensland
Elevation: 1250 feet     Latitude: 20 44S     Longitude: 139 29E

WEATHER
 
SELECT A DAY
Number of Records: 262,082;   Date Range: 9/26/01 - 12/18/14
 
SHARE

PRINT THIS DATA

[ ← Previous Day ]
WEATHER ALMANAC - FEBRUARY 5, 2013
[ Next Day → ]
[ °C ]   °F
Weather ElementAverageHighLow
Temperature85.9 °F105.8 °F (2:30 pm)60.8 °F (6:30 am)
Dewpoint31.5 °F37.4 °F (7:22 am)26.6 °F (3:30 pm)
Humidity14.9 %36 % (6:30 am)4 % (12:00 pm)
Barometer29.83 in29.92 in (8:30 am)29.71 in (7:00 pm)
Wind Speed5.4 mph12.7 mph (1:30 pm)
Weather ElementAverage
Visibility7.8 mi
Wind DirectionSSE (155.6 °)

Weather ElementTotal
Precipitation---
Cooling Degree Days18.3 (Base 65)
Growing Degree Days33.3 (Base 50)
Averaged from 66 records on February 5, 2013
WEATHER CONDITIONS BREAKOUT
WIND DIRECTION BREAKOUT
WEATHER BY HOUR - FEBRUARY 5, 2013
[ °C ]   °F
Local TimeTemperatureDewpointHumidityBarometerVisibilityWind DirectionWind SpeedGust SpeedPrecipitationEventsConditions
12:00 AM69.8 °F33.8 °F27 %29.89 in6.2 miSSE (160°)3.5 mph
12:30 AM69.8 °F32.0 °F25 %29.89 in6.2 miSouth (180°)8.1 mph
12:47 AM78.8 °F30.2 °F17 %29.89 in6.2 miSouth (180°)8.1 mph
1:00 AM76.0 °F31.0 °F10 %29.80 inSouth (180°)8.1 mph
1:00 AM75.2 °F30.2 °F19 %29.86 in6.2 miSouth (180°)8.1 mph
1:30 AM73.4 °F30.2 °F20 %29.86 in6.2 miSouth (170°)9.2 mph
2:00 AM77.0 °F28.4 °F17 %29.86 in6.2 miSouth (180°)9.2 mph
2:30 AM71.6 °F32.0 °F23 %29.86 in6.2 miSouth (170°)6.9 mph
3:00 AM69.8 °F33.8 °F27 %29.86 in6.2 miSouth (190°)5.8 mph
3:00 AM69.0 °F33.0 °F16 %29.80 inSouth (190°)5.8 mph
3:30 AM68.0 °F32.0 °F26 %29.86 in6.2 miSouth (190°)3.5 mph
4:00 AM70.0 °F32.0 °F14 %29.78 inSSW (210°)2.3 mph
4:00 AM69.8 °F32.0 °F25 %29.86 in6.2 miSSW (210°)2.3 mph
4:30 AM78.8 °F28.4 °F16 %29.86 in6.2 miSouth (180°)3.5 mph
5:00 AM77.0 °F28.4 °F17 %29.86 in6.2 miSouth (170°)1.2 mph
5:30 AM73.4 °F30.2 °F20 %29.86 in6.2 miSouth (170°)2.3 mph
5:58 AM64.4 °F32.0 °F30 %29.86 in6.2 miCalm
6:00 AM63.0 °F32.0 °F20 %29.80 in25.0 miCalmPartly Cloudy
6:00 AM62.6 °F32.0 °F32 %29.86 inCalmClear
6:30 AM60.8 °F33.8 °F36 %29.86 in6.2 miCalm
7:00 AM64.0 °F34.0 °F21 %29.81 inSE (140°)5.8 mph
7:00 AM64.4 °F33.8 °F32 %29.89 inSE (140°)5.8 mphClear
7:22 AM73.4 °F37.4 °F27 %29.89 inSSE (160°)4.6 mphClear
7:30 AM77.0 °F37.4 °F24 %29.89 in6.2 miSE (130°)1.2 mph
8:00 AM84.2 °F33.8 °F16 %29.89 inSSE (160°)4.6 mphClear
8:30 AM87.8 °F33.8 °F15 %29.92 in6.2 miESE (110°)4.6 mph
9:00 AM91.0 °F33.0 °F6 %29.85 in25.0 miEast (80°)5.8 mphPartly Cloudy
9:00 AM91.4 °F33.8 °F13 %29.92 inEast (80°)5.8 mphClear
9:30 AM95.0 °F33.8 °F12 %29.92 in6.2 miENE (60°)5.8 mph
10:00 AM96.0 °F34.0 °F5 %29.84 inNorth (10°)8.1 mph
10:00 AM96.8 °F33.8 °F11 %29.92 inNorth (10°)8.1 mphClear
10:30 AM98.6 °F33.8 °F10 %29.92 in6.2 miEast (90°)9.2 mph
11:00 AM100.4 °F32.0 °F9 %29.89 inEast (100°)11.5 mphClear
11:30 AM100.4 °F28.4 °F8 %29.89 in6.2 miENE (70°)9.2 mph
12:00 PM102.0 °F29.0 °F4 %29.83 in25.0 miNW (320°)6.9 mphPartly Cloudy
12:00 PM102.2 °F28.4 °F7 %29.89 inNW (320°)6.9 mphClear
12:30 PM102.2 °F28.4 °F7 %29.89 in6.2 miEast (100°)10.4 mph
1:00 PM102.0 °F29.0 °F4 %29.79 inSW (230°)5.8 mph
1:00 PM102.2 °F28.4 °F7 %29.86 in6.2 miSW (230°)5.8 mph
1:30 PM102.2 °F28.4 °F7 %29.83 in6.2 miEast (100°)12.7 mph
2:00 PM104.0 °F28.4 °F7 %29.83 inSW (220°)8.1 mphClear
2:30 PM105.8 °F28.4 °F7 %29.83 in6.2 miSE (130°)6.9 mph
3:00 PM102.2 °F28.4 °F7 %29.80 in6.2 miNE (40°)5.8 mphDust Whirls
3:00 PM103.0 °F29.0 °F4 %29.75 in25.0 miNE (40°)5.8 mphDust Whirls
3:30 PM104.0 °F26.6 °F7 %29.80 in6.2 miESE (110°)8.1 mph
4:00 PM103.0 °F28.0 °F4 %29.72 inNW (310°)5.8 mph
4:00 PM102.2 °F28.4 °F7 %29.80 in6.2 miNW (310°)5.8 mph
4:30 PM105.8 °F30.2 °F7 %29.77 in6.2 miESE (120°)6.9 mph
5:00 PM104.0 °F28.4 °F7 %29.77 in6.2 miNNW (330°)5.8 mph
5:30 PM104.0 °F28.4 °F7 %29.77 in6.2 miSE (130°)9.2 mph
6:00 PM104.0 °F28.4 °F7 %29.77 in6.2 miWest (280°)6.9 mph
6:00 PM103.0 °F28.0 °F4 %29.72 inWest (280°)6.9 mph
6:30 PM102.2 °F28.4 °F7 %29.77 in6.2 miEast (90°)6.9 mph
7:00 PM100.0 °F30.0 °F4 %29.71 inSSE (160°)5.8 mph
7:00 PM100.4 °F30.2 °F9 %29.80 in6.2 miSSE (160°)5.8 mph
7:30 PM91.4 °F32.0 °F12 %29.80 in6.2 miSSW (200°)5.8 mph
8:00 PM84.2 °F32.0 °F15 %29.80 in6.2 miSouth (180°)4.6 mph
8:30 PM80.6 °F33.8 °F18 %29.80 in6.2 miCalm
9:00 PM78.8 °F33.8 °F20 %29.80 in6.2 miCalm
9:00 PM79.0 °F34.0 °F11 %29.75 inCalm
9:30 PM77.0 °F35.6 °F22 %29.83 in6.2 miSSE (150°)2.3 mph
10:00 PM76.0 °F35.0 °F13 %29.75 inCalm
10:00 PM77.0 °F35.6 °F22 %29.83 in6.2 miCalm
10:30 PM75.2 °F35.6 °F24 %29.83 in6.2 miNNW (340°)5.8 mph
11:00 PM75.2 °F35.6 °F24 %29.83 in6.2 miNNW (330°)3.5 mph
11:30 PM75.2 °F37.4 °F25 %29.83 in6.2 miNNW (340°)4.6 mph
Hourly data recorded from YBMA, located miles away from Mount Isa Mines, Queensland







STORIES FROM OUR PARTNERS